McCook, NE

12:37 AM CST on January 21, 2017 (GMT -0600)
McCook

Weather History for KMCK - May, 2014

Change the Weather History Date:

Friday, May 9, 2014

  Actual Average Record
Temperature  
Mean Temperature 55 °F 58 °F  
Max Temperature 78 °F 72 °F 97 °F (1916)
Min Temperature 31 °F 44 °F 1 °F (2015)
Degree Days  
Heating Degree Days 12    
Growing Degree Days 4 (Base 50)    
Moisture  
Dew Point 33 °F    
Average Humidity 51    
Maximum Humidity 93    
Minimum Humidity 19    
Precipitation  
Precipitation 0.00 in 0.09 in 0.55 in (1998)
Month to date precipitation T 0.85  
Year to date precipitation 1.86 5.65  
Sea Level Pressure  
Sea Level Pressure 29.84 in    
Wind  
Wind Speed 8 mph (SW)    
Max Wind Speed 14 mph    
Max Gust Speed 21 mph    
Visibility 10 miles    
Events      
T = Trace of Precipitation, MM = Missing Value Source: NWS Daily Summary

Daily Weather History Graph

Daily Weather History Graph

Search for Another Location

Airport or City:

Trip Planner

Search our weather history database for the weather conditions in past years. The results will help you decide how hot, cold, wet, or windy it might be!

Date:

Astronomy

May. 09, 2014 Rise Set
Actual Time 6:32 AM CDT 8:45 PM CDT
Civil Twilight 6:02 AM CDT 9:15 PM CDT
Nautical Twilight 5:25 AM CDT 9:53 PM CDT
Astronomical Twilight 4:44 AM CDT 10:34 PM CDT
Moon 3:44 PM CDT (5/9) 3:36 AM CDT (5/9)
Length of Visible Light 15h 13m
Length of Day
14h 13m
Waxing Gibbous, 74% of the Moon is Illuminated
May 9
Waxing Gibbous
May 14
Full
May 21
Last Quarter
May 28
New
Jun 5
First Quarter

Hourly Weather History & Observations

Time (CDT) Temp. Windchill Dew Point Humidity Pressure Visibility Wind Dir Wind Speed Gust Speed Precip Events Conditions
12:53 AM 39.0 °F 32.8 °F 34.0 °F 82% 29.96 in 10.0 mi NW 9.2 mph - N/A   Clear
1:53 AM 37.0 °F 31.0 °F 33.1 °F 86% 29.96 in 10.0 mi WNW 8.1 mph - N/A   Clear
2:53 AM 37.0 °F 29.3 °F 33.1 °F 86% 29.95 in 10.0 mi WNW 11.5 mph - N/A   Clear
3:53 AM 33.8 °F 26.4 °F 30.2 °F 87% 29.92 in 10.0 mi NW 9.2 mph - N/A   Clear
4:53 AM 33.1 °F 28.7 °F 30.9 °F 92% 29.94 in 10.0 mi West 4.6 mph - N/A   Clear
5:53 AM 33.1 °F 26.1 °F 30.9 °F 92% 29.96 in 10.0 mi SW 8.1 mph - N/A   Mostly Cloudy
6:53 AM 32.0 °F 25.6 °F 30.2 °F 93% 29.95 in 10.0 mi SW 6.9 mph - N/A   Clear
7:53 AM 37.0 °F 31.0 °F 33.1 °F 86% 29.98 in 10.0 mi SW 8.1 mph - N/A   Clear
8:53 AM 43.0 °F 39.5 °F 35.1 °F 74% 29.96 in 10.0 mi SW 5.8 mph - N/A   Clear
9:53 AM 48.9 °F - 34.0 °F 56% 29.96 in 10.0 mi South 6.9 mph - N/A   Clear
10:53 AM 55.9 °F - 37.0 °F 49% 29.92 in 10.0 mi South 12.7 mph - N/A   Clear
11:53 AM 62.1 °F - 39.0 °F 43% 29.89 in 10.0 mi South 12.7 mph - N/A   Clear
12:53 PM 66.0 °F - 37.9 °F 36% 29.85 in 10.0 mi North - - N/A   Clear
1:53 PM 71.1 °F - 34.0 °F 26% 29.81 in 10.0 mi North - - N/A   Clear
2:53 PM 75.0 °F - 30.9 °F 20% 29.78 in 10.0 mi WNW 11.5 mph 20.7 mph N/A   Scattered Clouds
3:53 PM 75.9 °F - 30.0 °F 19% 29.76 in 10.0 mi SW 13.8 mph - N/A   Scattered Clouds
4:53 PM 73.9 °F - 30.0 °F 20% 29.73 in 10.0 mi SW 8.1 mph - N/A   Scattered Clouds
5:53 PM 73.0 °F - 32.0 °F 22% 29.72 in 10.0 mi SSE 3.5 mph - N/A   Overcast
6:53 PM 72.0 °F - 30.9 °F 22% 29.72 in 10.0 mi Variable 5.8 mph - N/A   Mostly Cloudy
7:27 PM 71.1 °F - 33.1 °F 25% 29.73 in 10.0 mi WSW 10.4 mph - N/A   Mostly Cloudy
7:53 PM 69.1 °F - 35.1 °F 29% 29.72 in 10.0 mi WSW 4.6 mph - N/A   Partly Cloudy
8:53 PM 66.0 °F - 35.1 °F 32% 29.71 in 10.0 mi ESE 3.5 mph - N/A   Clear
9:53 PM 66.9 °F - 33.1 °F 28% 29.71 in 10.0 mi SSE 3.5 mph - N/A   Clear
10:53 PM 61.0 °F - 33.1 °F 35% 29.73 in 10.0 mi SSW 6.9 mph - N/A   Partly Cloudy
11:53 PM 60.8 °F - 35.6 °F 39% 29.79 in 10.0 mi West 4.6 mph - N/A   Overcast